This is the latest recevied weather packets stored in our database for station/object OE6JVE-13. If no packets are shown the sender has not sent any weather packets the latest 10 day(s).
| Time | Temp. | Humidity | Pressure | Rain* | Wind** | Luminosity | Snow |
|---|---|---|---|---|---|---|---|
| 1787909461 | 26.11° C | 57% | 1007.7 hPa | 0 mm | - | - | - |
| 1787908884 | 26.11° C | 57% | 1007.8 hPa | 0 mm | - | - | - |
| 1787908268 | 25.56° C | 58% | 1007.7 hPa | 0 mm | - | - | - |
| 1787907685 | 25° C | 60% | 1007.8 hPa | 0 mm | - | - | - |
| 1787907063 | 24.44° C | 60% | 1007.8 hPa | 0 mm | - | - | - |
| 1787906446 | 23.89° C | 61% | 1008.2 hPa | 0 mm | - | - | - |
| 1787905860 | 23.89° C | 61% | 1008.2 hPa | 0 mm | - | - | - |
| 1787905242 | 23.33° C | 62% | 1007.9 hPa | 0 mm | - | - | - |
| 1787904655 | 23.33° C | 64% | 1008 hPa | 0 mm | - | - | - |
| 1787904056 | 23.33° C | 64% | 1008.2 hPa | 0 mm | - | - | - |
| 1787903464 | 23.33° C | 67% | 1008.2 hPa | 0 mm | - | - | - |
| 1787902877 | 22.78° C | 66% | 1008.5 hPa | 0 mm | - | - | - |
| 1787902285 | 22.78° C | 69% | 1008.6 hPa | 0 mm | - | - | - |
| 1787901622 | 22.22° C | 75% | 1008.7 hPa | 0 mm | - | - | - |
| 1787901030 | 21.11° C | 76% | 1008.6 hPa | 0 mm | - | - | - |
| 1787900438 | 20.56° C | 81% | 1008.7 hPa | 0 mm | - | - | - |
| 1787899861 | 20° C | 91% | 1008.8 hPa | 0 mm | - | - | - |
| 1787899254 | 20° C | 98% | 1008.7 hPa | 0 mm | - | - | - |
| 1787898662 | 18.89° C | 99% | 1008.8 hPa | 0 mm | - | - | - |
| 1787898071 | 18.33° C | 99% | 1008.8 hPa | 0 mm | - | - | - |
| 1787897477 | 18.33° C | 99% | 1008.9 hPa | 0 mm | - | - | - |
| 1787896820 | 17.78° C | 99% | 1008.8 hPa | 0 mm | - | - | - |
| 1787896227 | 17.78° C | 99% | 1008.6 hPa | 0 mm | - | - | - |
| 1787895636 | 17.78° C | 99% | 1008.6 hPa | 0 mm | - | - | - |
| 1787895043 | 17.22° C | 99% | 1008.4 hPa | 0 mm | - | - | - |
* Rain latest hour (hover to see other rain measurements)
** Current wind speed in m/s (hover to see current wind gust speed)